WA6GRA Weather Reports


time (UTC)temp
F
wind
direction
speed
knots
gust
knots
rain 1hr
in
rain 24hr
in
rain mn
in
humidity
%
barometer
mb
20260506175443 69 238 2.6 2.6 0.00 0.00 0.00 60 1019.7
20260506174444 68 247 0.9 0.9 0.00 0.00 0.00 60 1019.6
20260506173444 67 242 3.5 4.3 0.00 0.00 0.00 62 1019.7
20260506172444 67 268 4.3 5.2 0.00 0.00 0.00 65 1019.5
20260506171443 67 214 2.6 2.6 0.00 0.00 0.00 64 1019.7
20260506170443 66 236 3.5 4.3 0.00 0.00 0.00 65 1019.8
20260506165440 66 187 1.7 1.7 0.00 0.00 0.00 66 1020.0
20260506164438 64 240 0.9 1.7 0.00 0.00 0.00 69 1019.9
20260506163437 64 228 0.0 0.9 0.00 0.00 0.00 70 1019.9
20260506162436 63 202 0.0 0.9 0.00 0.00 0.00 68 1020.0
20260506161431 63 112 0.9 0.9 0.00 0.00 0.00 70 1019.9
20260506160431 63 203 0.0 0.9 0.00 0.00 0.00 70 1020.1
20260506155427 62 149 3.5 4.3 0.00 0.00 0.00 71 1020.0
20260506153554 62 129 3.5 4.3 0.00 0.00 0.00 70 1020.0
20260506152554 60 146 1.7 1.7 0.00 0.00 0.00 72 1019.9
20260506151549 60 185 1.7 1.7 0.00 0.00 0.00 72 1019.9
20260506150548 60 71 1.7 1.7 0.00 0.00 0.00 71 1020.0
20260506145547 59 47 0.9 0.9 0.00 0.00 0.00 74 1019.9
20260506144547 59 1 1.7 1.7 0.00 0.00 0.00 73 1019.7
20260506143542 58 359 0.0 0.9 0.00 0.00 0.00 75 1019.8
20260506142538 59 359 0.9 0.9 0.00 0.00 0.00 74 1019.9
20260506141533 57 359 0.0 0.0 0.00 0.00 0.00 78 1019.7
20260506140529 55 359 0.9 0.9 0.00 0.00 0.00 81 1019.5
20260506135528 54 359 0.0 0.0 0.00 0.00 0.00 82 1019.7
20260506134527 53 359 0.0 0.0 0.00 0.00 0.00 84 1019.5
20260506133526 52 0 0.0 0.9 0.00 0.00 0.00 86 1019.2
20260506132526 51 358 0.0 0.0 0.00 0.00 0.00 89 1019.2
20260506131526 50 342 0.0 0.9 0.00 0.00 0.00 90 1019.2
20260506130525 50 348 0.0 0.0 0.00 0.00 0.00 90 1019.0
20260506125521 50 349 0.0 0.0 0.00 0.00 0.00 90 1018.9
20260506124516 50 349 0.0 0.0 0.00 0.00 0.00 90 1018.6
20260506123512 50 349 0.0 0.0 0.00 0.00 0.00 90 1018.7
20260506122512 50 348 0.9 0.9 0.00 0.00 0.00 90 1018.6
20260506121507 51 348 0.0 0.0 0.00 0.00 0.00 90 1018.7
20260506120507 51 349 0.0 0.0 0.00 0.00 0.00 89 1018.7
20260506115502 51 348 0.0 0.0 0.00 0.00 0.00 89 1018.5
20260506114457 51 343 0.0 0.0 0.00 0.00 0.00 89 1018.6
20260506113453 51 329 0.9 0.9 0.00 0.00 0.00 89 1018.6
20260506112453 51 329 0.0 0.0 0.00 0.00 0.00 88 1018.4
20260506111448 52 329 0.0 0.0 0.00 0.00 0.00 88 1018.6
20260506110449 52 329 0.0 0.0 0.00 0.00 0.00 88 1018.6
20260506105447 52 329 0.0 0.0 0.00 0.00 0.00 87 1018.2
20260506104443 52 329 0.0 0.0 0.00 0.00 0.00 87 1018.1
20260506103438 52 329 0.0 0.9 0.00 0.00 0.00 86 1018.2
20260506102433 52 336 0.9 0.9 0.00 0.00 0.00 85 1017.9
20260506101431 52 353 0.0 0.9 0.00 0.00 0.00 85 1017.9
20260506100427 52 352 0.0 0.0 0.00 0.00 0.00 86 1017.6
20260506095423 52 1 0.0 0.0 0.00 0.00 0.00 87 1017.7
20260506094418 52 356 0.9 0.9 0.00 0.00 0.00 87 1017.5
20260506093419 52 351 0.0 0.0 0.00 0.00 0.00 87 1017.9
20260506092414 53 351 0.9 1.7 0.00 0.00 0.00 86 1017.7
20260506091414 53 350 0.9 0.9 0.00 0.00 0.00 85 1017.8
20260506090415 55 347 0.9 0.9 0.00 0.00 0.00 83 1017.9
20260506085414 55 352 1.7 1.7 0.00 0.00 0.00 81 1017.9
20260506084413 55 329 0.9 0.9 0.00 0.00 0.00 81 1018.1
20260506083413 55 331 1.7 1.7 0.00 0.00 0.00 83 1017.9
20260506082413 54 341 1.7 1.7 0.00 0.00 0.00 85 1017.8
20260506081413 54 347 0.0 0.0 0.00 0.00 0.00 85 1017.7
20260506080412 55 347 0.0 0.0 0.00 0.00 0.00 84 1017.9
20260506073402 55 349 0.0 0.0 0.00 0.00 0.00 83 1017.8
20260506072402 55 349 0.9 0.9 0.00 0.00 0.00 82 1017.6
20260506071358 56 348 0.9 0.9 0.00 0.00 0.00 81 1017.5
20260506070357 56 355 0.9 1.7 0.00 0.00 0.00 81 1017.4
20260506062340 57 355 0.9 0.9 0.00 0.00 0.00 79 1016.9
20260506061339 58 355 0.9 0.9 0.00 0.00 0.00 77 1016.9
20260506060335 59 349 1.7 1.7 0.00 0.00 0.00 75 1017.0
20260506051324 58 1 0.9 0.9 0.00 0.00 0.00 75 1016.2
20260506050319 59 353 1.7 1.7 0.00 0.00 0.00 75 1016.4
20260506044313 60 343 0.0 0.9 0.00 0.00 0.00 70 1016.1
20260506043313 61 337 0.9 1.7 0.00 0.00 0.00 68 1015.8
20260506042310 61 332 0.0 0.0 0.00 0.00 0.00 66 1015.7
20260506041311 62 332 0.9 0.9 0.00 0.00 0.00 65 1015.6
20260506040305 62 332 1.7 1.7 0.00 0.00 0.00 64 1015.4
20260506035306 62 324 0.9 0.9 0.00 0.00 0.00 64 1015.4
20260506034259 63 306 2.6 4.3 0.00 0.00 0.00 63 1015.4
20260506033259 63 325 1.7 1.7 0.00 0.00 0.00 62 1015.3
20260506032258 64 336 2.6 2.6 0.00 0.00 0.00 60 1015.2
20260506031258 64 325 2.6 2.6 0.00 0.00 0.00 60 1015.1
20260506030254 65 335 2.6 4.3 0.00 0.00 0.00 58 1014.9
20260506025253 66 349 3.5 4.3 0.00 0.00 0.00 57 1014.7
20260506024252 66 334 2.6 2.6 0.00 0.00 0.00 56 1014.7
20260506023251 66 353 1.7 1.7 0.00 0.00 0.00 55 1014.6
20260506022246 67 343 3.5 4.3 0.00 0.00 0.00 54 1014.3
20260506021246 68 309 1.7 1.7 0.00 0.00 0.00 52 1014.4
20260506020246 68 342 2.6 2.6 0.00 0.00 0.00 51 1014.3
20260506015247 67 336 1.7 2.6 0.00 0.00 0.00 52 1014.2
20260506014246 67 346 3.5 4.3 0.00 0.00 0.00 51 1014.4
20260506013246 67 338 2.6 2.6 0.00 0.00 0.00 51 1014.1
20260506012244 67 334 2.6 2.6 0.00 0.00 0.00 51 1014.0
20260506011244 68 352 4.3 6.1 0.00 0.00 0.00 49 1013.9
20260506010239 69 14 1.7 1.7 0.00 0.00 0.00 48 1013.8
20260506005239 67 21 0.9 0.9 0.00 0.00 0.00 50 1014.1
20260506004238 68 12 2.6 4.3 0.00 0.00 0.00 50 1014.2
20260506003237 68 9 1.7 1.7 0.00 0.00 0.00 49 1013.9
20260506002235 68 43 2.6 4.3 0.00 0.00 0.00 49 1014.0
20260506001235 69 351 3.5 5.2 0.00 0.00 0.00 48 1014.0
20260506000229 69 334 1.7 2.6 0.00 0.00 0.00 48 1014.0
20260505235229 69 8 1.7 4.3 0.00 0.00 0.00 47 1014.1
20260505234229 69 83 3.5 5.2 0.00 0.00 0.00 46 1014.1
20260505233230 70 299 1.7 1.7 0.00 0.00 0.00 45 1014.3
20260505232230 69 307 1.7 1.7 0.00 0.00 0.00 46 1014.4
20260505231225 69 40 1.7 1.7 0.00 0.00 0.00 48 1014.3
20260505230225 69 291 2.6 2.6 0.00 0.00 0.00 47 1014.4
20260505225225 69 273 2.6 2.6 0.00 0.00 0.00 45 1014.3
20260505224224 70 253 8.7 9.6 0.00 0.00 0.00 45 1014.5
20260505223223 70 289 4.3 6.1 0.00 0.00 0.00 46 1014.5
20260505222221 70 228 6.1 7.0 0.00 0.00 0.00 46 1014.5
20260505221221 69 166 4.3 5.2 0.00 0.00 0.00 48 1014.4
20260505220216 68 243 5.2 6.1 0.00 0.00 0.00 49 1014.5
20260505215211 69 266 7.0 8.7 0.00 0.00 0.00 48 1014.6
20260505214206 68 273 4.3 5.2 0.00 0.00 0.00 51 1014.6
20260505213200 69 180 4.3 5.2 0.00 0.00 0.00 51 1014.8
20260505212159 68 330 5.2 5.2 0.00 0.00 0.00 50 1014.7
20260505211159 68 270 6.1 7.8 0.00 0.00 0.00 52 1014.8
20260505210159 68 19 5.2 6.1 0.00 0.00 0.00 51 1014.7
20260505205154 67 252 4.3 6.1 0.00 0.00 0.00 54 1015.0
20260505204154 66 326 1.7 1.7 0.00 0.00 0.00 53 1014.8
20260505203154 66 28 0.9 0.9 0.00 0.00 0.00 58 1014.7
20260505202152 67 273 3.5 4.3 0.00 0.00 0.00 58 1015.0
20260505201152 67 274 1.7 2.6 0.00 0.00 0.00 58 1014.9
20260505200152 64 265 5.2 6.1 0.00 0.00 0.00 62 1015.0
20260505195152 64 276 7.0 7.0 0.00 0.00 0.00 62 1015.0
20260505194151 64 348 5.2 6.1 0.00 0.00 0.00 63 1015.2
20260505193150 63 322 5.2 6.1 0.00 0.00 0.00 65 1015.3
20260505192146 62 309 2.6 2.6 0.00 0.00 0.00 69 1015.4
20260505191142 62 297 5.2 7.0 0.00 0.00 0.00 68 1015.3
20260505190138 61 293 4.3 6.1 0.00 0.00 0.00 68 1015.4
20260505185137 60 335 4.3 6.1 0.00 0.00 0.00 70 1015.6
20260505184136 60 310 3.5 4.3 0.00 0.00 0.00 71 1015.5
20260505183131 60 318 4.3 6.1 0.00 0.00 0.00 71 1015.5
20260505182129 61 308 5.2 7.0 0.00 0.00 0.00 69 1015.4
20260505181129 60 305 4.3 7.0 0.00 0.00 0.00 70 1015.4
20260505180129 59 316 3.5 4.3 0.00 0.00 0.00 73 1015.2